SCP
0 0 0 0 0 0 0 0 0 0 0 0 0 0 0 0 0 0 0 0 0 0 0 0 0 0 0 0 0 0 0 0 0 0 0 0 0 0 0 0 0 0 0 0
0 0 0 0 0 0 0 0 0 0 0 0 0 0 0 0 0 0 0 0 0 0 0 0 0 0 0 0 0 0 0 0 0 0 0 0 0 0 0 0 0 0 0 0
0 0 0 0 0 0 0 0 0 0 0 0 0 0 0 0 0 0 0 0 0 0 0 0 0 0 0 0 0 0 0 0 0 0 0 0 0 0 0 0 0 0 0 0
0 0 0 0 0 0 0 0 0 0 0 0 0 0 0 0 0 0 0 0 0 0 0 0 0 0 0 0 0 0 0 0 0 0 0 0 0 0 0 0 -0 -0 0 0
0 0 0 0 0 0 0 0 0 0 0 0 0 0 0 0 0 -0 -0 -0 0 0 0 0 0 0 0 0 0 0 0 0 0 0 0 0 0 0 0 0 0 0 0 0
0 0 0 0 0 0 0 0 0 0 0 0 0 -0 -0 -0 -0 -0 0 0 0 0 0 0 0 0 0 0 0 0 0 0 0 0 0 0 0 0 0 0 0 0 0 0
0 0 0 0 0 0 0 0 0 0 0 0 0 0 -0 -0 -0 -0 -0 0 0 0 0 0 0 0 0 0 0 0 0 0 0 0 0 0 0 0 0 0 0 0 0 0
0 0 0 0 0 0 0 0 0 0 0 0 0 0 -0 -0 -0 0 0 -0 0 0 0 0 0 0 0 0 0 0 0 0 0 0 0 0 0 0 0 0 0 0 0 -0
0 0 0 0 0 0 0 0 0 0 0 0 0 -0 -0 -0 0 0 0 0 0 0 0 0 0 0 0 0 0 -0 -0 -0 0 0 0 0 0 0 0 0 0 0 0 0
0 0 0 0 0 0 0 0 0 0 0 0 -0 -0 -0 -0 0 0 0 0 0 0 -0 0 0 0 0 0 0 0 -0 0 0 0 0 0 0 0 0 0 0 0 0 0
0 0 0 0 0 0 0 0 0 0 0 -0 -0 -0 -0 0 -0 0 0 0 0 -0 0 0 0 0 0 0 0 0 0 0 0 0 0 0 0 0 0 0 0 0 0 0
0 0 0 0 0 0 0 0 0 -0 -0 -0 -0 -0 0 -0 0 0 -0 -0 -0 -0 0 0 0 0 0 0 0 0 0 0 0 0 0 0 0 0 0 0 0 0 0 0
0 0 0 0 0 0 0 0 -0 -0 -0 -0 -0 0 -0 0 0 -0 -0 -0 -0 0 0 0 0 0 0 0 0 0 0 0 0 0 0 0 0 0 0 0 0 -0 -0 0
0 0 0 0 0 0 0 -0 -0 -0 -0 -0 -0 -0 0 -0 -0 -0 -0 -0 0 -0 0 0 0 0 0 0 0 0 0 0 0 0 0 0 0 0 0 0 0 0 0 0
0 0 0 0 0 0 -0 -0 -0 -0 -0 -0 -0 0 -0 -0 -0 -0 -0 -0 -0 0 0 0 0 0 0 0 0 0 0 0 0 0 0 0 0 0 0 0 0 0 0 0
0 0 0 0 0 -0 -0 -0 -0 -0 -0 -0 0 -0 -0 -0 -0 -0 0 0 -0 -0 0 0 0 0 0 0 0 0 0 0 0 0 0 0 0 0 0 0 0 0 0 0
0 0 0 -0 -0 -0 -0 -0 -0 -0 -0 0 -0 -0 -0 -0 0 0 -0 -0 0 0 0 0 0 0 0 0 0 0 0 0 0 0 0 0 0 0 0 0 0 0 0 0
0 0 -0 -0 -0 -0 -0 -0 -0 -0 -0 0 -0 -0 0 -0 0 -0 -0 -0 0 0 0 0 0 0 0 0 0 0 0 0 0 0 0 0 0 0 0 -0 0 0 0 0
-0 0 0 -0 -0 -0 -0 -0 -0 -0 0 -0 -0 -0 -0 0 0 -0 -0 -0 -0 -0 0 0 -0 0 0 0 0 0 0 0 0 0 0 0 0 0 0 0 0 0 0 0
-0 -0 -0 -0 0 -0 0 0 -0 -0 -0 -0 -0 -0 0 0 -0 -0 -0 -0 0 0 0 -0 -0 0 0 0 0 0 0 0 0 0 0 0 0 0 0 0 0 0 0 0
-0 0 0 0 0 -0 -0 -0 -0 -0 -0 -0 -0 -0 0 -0 -0 -0 -0 0 -0 -0 -0 -0 -0 0 0 0 0 0 0 0 0 0 0 0 0 0 0 0 0 0 0 -0
0 0 0 0 -0 0 -0 -0 -0 -0 -0 -0 -0 -0 -0 -0 -0 -0 0 0 -0 -0 -0 0 0 -0 0 0 0 0 0 0 0 0 0 0 0 0 0 0 0 0 0 0
-0 -0 -0 -0 -0 -0 -0 -0 -0 -0 -0 0 -0 -0 0 -0 -0 -0 0 -0 -0 -0 0 -0 -0 -0 0 0 0 0 0 0 0 0 0 0 0 0 0 0 0 0 0 0
0 -0 -0 -0 -0 -0 -0 -0 -0 -0 -0 -0 -0 -0 0 0 -0 0 0 0 -0 -0 -0 -0 -0 -0 0 0 0 0 0 0 0 0 0 0 0 0 0 0 0 0 0 0
-0 0 0 0 -0 -0 -0 -0 -0 -0 -0 -0 -0 -0 -0 -0 0 -0 0 0 -0 -0 -0 -0 -0 -0 0 0 0 0 0 0 0 0 0 0 0 0 0 0 0 0 0 0
-0 0 -0 0 -0 -0 -0 -0 -0 -0 -0 -0 -0 -0 -0 -0 -0 -0 -0 0 -0 -0 -0 -0 -0 -0 0 0 0 0 0 0 0 0 0 0 0 0 0 0 0 0 0 0
0 0 0 -0 -0 -0 -0 -0 -0 -0 -0 -0 -0 -0 -0 -0 -0 0 -0 -0 -0 -0 -0 -0 -0 -0 -0 -0 0 0 0 0 0 0 0 0 0 0 0 0 0 0 0 0
Wind_Speed_500mb
16 25 29 29 32 32 31 25 21 35 30 33 28 10 10 18 19 16 19 28 34 36 38 32 24 22 26 37 43 42 40 44 50 58 67 72 75 73 69 70 74 77 76 66
19 27 28 36 33 31 35 37 39 35 28 18 18 30 35 26 21 21 26 33 38 41 48 48 52 54 54 53 57 59 63 68 68 63 52 51 56 55 58 57 55 66 70 69
9 15 27 22 25 25 13 23 3 8 7 20 17 15 15 27 31 37 40 44 49 57 66 73 71 66 67 68 65 67 71 74 67 65 66 71 75 76 79 78 67 57 59 69
8 14 8 11 20 5 12 25 25 8 10 12 8 29 32 22 36 39 42 44 49 56 66 69 69 74 80 84 78 75 83 86 82 80 85 89 88 83 87 90 98 88 70 59
5 6 21 22 10 9 5 5 3 15 15 20 33 31 17 46 58 57 59 58 63 65 63 61 62 64 65 72 78 80 86 84 84 75 79 80 82 81 81 83 87 80 72 69
5 5 7 3 16 24 7 4 10 13 12 18 38 13 14 55 59 54 53 58 65 76 83 67 55 60 67 78 94 107 113 91 78 78 82 79 74 83 80 78 83 76 81 60
12 7 12 12 17 12 1 2 18 19 26 35 8 14 53 58 58 61 68 74 71 69 58 66 75 87 104 111 105 93 73 69 79 81 65 70 78 80 80 84 84 69 67 79
8 9 12 11 12 1 6 16 23 28 39 30 40 46 50 58 65 66 66 68 60 71 76 80 93 88 95 89 90 82 89 79 71 67 75 75 72 78 76 73 71 73 76 75
6 7 14 21 4 13 13 25 25 38 29 38 45 47 56 63 65 67 62 70 69 73 90 104 96 91 85 94 86 82 76 80 76 72 67 68 69 73 76 72 66 63 64 59
10 9 16 21 15 14 20 29 31 32 37 39 46 55 61 61 61 66 68 69 78 83 89 98 90 85 85 88 79 75 76 75 76 76 77 80 76 66 69 70 65 63 64 60
21 8 13 13 13 18 36 36 32 30 32 43 49 53 54 58 78 64 74 80 81 83 98 94 96 91 80 70 64 66 67 68 70 68 67 66 68 71 68 71 69 66 64 58
7 14 24 37 17 25 29 28 29 35 44 44 42 53 58 70 55 77 90 90 83 95 89 93 91 83 73 65 57 58 62 63 65 64 66 68 69 72 69 73 75 75 72 52
15 22 14 25 24 30 26 26 29 37 37 49 54 54 58 57 82 93 85 73 91 94 93 89 82 78 70 63 57 58 63 61 60 62 68 66 63 68 70 70 74 81 82 76
15 7 12 20 33 40 25 30 31 36 46 46 53 55 56 81 89 81 76 89 92 92 85 77 74 76 73 67 64 63 61 59 62 64 64 65 67 62 66 60 61 67 68 64
9 13 24 28 26 30 34 39 47 51 46 56 54 48 73 81 77 80 80 92 86 84 77 75 79 79 71 65 65 62 58 54 51 50 49 50 52 59 63 66 64 60 59 59
18 24 26 29 30 37 36 40 37 41 58 56 41 65 76 78 77 77 86 86 85 84 76 76 79 75 67 65 61 57 53 44 31 33 37 39 42 47 51 58 59 58 59 61
16 22 25 28 28 28 31 34 48 44 51 35 56 73 84 78 75 82 87 80 72 69 71 76 75 67 63 53 57 53 52 38 31 31 35 38 39 40 42 47 49 51 57 54
18 22 22 20 31 33 33 45 38 48 41 48 67 77 74 73 84 85 88 79 72 76 71 70 66 63 54 49 48 46 50 32 35 36 35 33 34 33 36 34 36 38 44 43
17 19 24 29 26 29 39 37 46 38 39 59 68 70 64 70 79 85 82 74 77 85 83 70 63 62 55 40 40 33 43 32 42 33 36 25 25 23 10 13 18 24 29 32
22 24 27 23 33 28 37 39 43 36 53 52 57 69 71 83 82 83 77 71 71 72 71 65 64 59 51 42 36 37 35 32 34 36 37 35 28 29 30 16 13 18 27 27
23 22 27 35 28 36 33 45 35 51 48 50 54 68 70 79 80 84 79 77 74 67 65 62 60 55 47 41 39 35 31 32 37 39 38 39 34 28 22 14 19 19 22 28
21 19 29 28 34 30 42 32 47 54 54 47 61 70 80 83 81 84 70 68 70 64 64 61 54 44 39 37 36 37 32 28 28 33 34 35 39 38 29 24 16 18 22 21
18 19 29 33 33 36 38 37 57 58 54 42 69 62 71 84 79 85 89 74 68 61 61 54 46 42 44 41 39 38 34 31 24 26 26 30 36 34 31 26 25 25 24 18
17 21 30 32 33 39 41 44 50 59 50 46 66 54 65 86 80 70 72 69 65 59 60 53 48 49 53 51 47 41 38 33 31 28 26 25 24 25 35 28 33 31 28 28
26 25 31 30 36 38 36 42 50 56 68 49 64 56 56 79 76 73 74 75 70 67 63 59 56 56 55 53 51 50 43 37 33 28 28 27 28 27 28 30 34 33 29 26
25 26 27 31 37 36 37 46 54 50 67 71 60 59 55 83 82 78 77 79 78 74 72 67 67 60 61 56 51 50 50 44 37 33 33 32 27 25 25 25 24 25 25 23
27 27 26 34 34 37 37 41 57 49 56 72 68 60 56 79 81 84 83 83 84 82 78 75 71 66 65 61 57 52 51 47 42 40 35 37 32 25 27 27 27 26 22 19
Wind_Direction_500mb
270 283 287 284 275 269 264 238 215 267 254 257 271 284 177 71 33 347 291 285 315 320 326 335 353 326 301 297 292 285 285 280 283 288 283 279 277 280 285 287 289 288 291 296
290 282 282 279 287 286 271 271 266 265 269 41 58 45 38 17 351 325 27 356 343 333 325 321 315 310 306 310 307 296 288 285 281 279 280 276 270 267 268 276 286 290 290 289
260 326 318 294 252 256 279 337 353 39 11 33 13 33 11 351 18 17 356 341 331 321 316 313 311 307 303 303 299 296 292 287 284 279 277 276 273 272 273 273 276 281 286 285
277 300 246 243 333 64 91 56 349 19 95 102 318 340 343 24 13 351 339 326 318 314 312 308 303 300 299 297 299 298 295 291 288 283 279 276 274 273 277 277 277 278 273 280
239 232 289 295 20 12 17 108 302 0 348 357 348 334 302 355 344 336 330 323 318 315 309 303 300 293 288 287 287 288 292 292 290 280 276 274 271 274 278 280 278 276 272 271
204 226 263 104 24 24 7 233 358 0 338 345 339 339 316 334 333 327 322 320 317 313 309 308 295 288 288 291 292 292 291 277 275 277 273 268 266 277 276 279 274 273 266 263
221 239 274 25 345 73 317 278 298 332 349 318 304 308 324 327 323 323 320 318 318 312 302 303 299 300 301 302 298 299 290 277 278 272 266 261 266 269 273 276 276 264 263 256
224 218 248 12 351 348 250 315 324 341 324 335 335 331 326 322 320 319 317 318 312 308 310 305 305 307 302 296 295 292 288 286 279 273 272 274 264 264 270 270 260 258 263 268
213 226 225 282 238 312 289 297 336 319 338 340 333 331 325 318 317 318 318 315 313 313 308 309 307 311 296 302 301 297 290 282 281 276 274 271 265 265 270 264 252 251 254 257
345 305 12 30 81 14 341 323 319 326 338 336 333 326 319 318 320 320 319 317 316 314 311 308 309 309 305 306 303 296 289 283 277 278 275 270 269 265 258 252 248 248 248 247
290 314 342 56 358 347 315 311 314 337 337 333 325 319 320 321 323 321 317 321 319 313 313 310 313 314 314 310 305 298 293 288 284 279 273 266 261 261 256 254 246 243 244 243
240 341 292 286 312 322 298 314 344 340 336 330 329 324 324 325 317 320 325 322 317 317 315 314 320 321 322 324 314 306 298 291 285 280 274 268 264 264 253 249 244 240 241 238
235 263 300 312 320 308 329 351 346 341 337 334 329 325 324 320 322 327 324 321 320 322 322 324 326 325 330 326 316 305 298 290 283 278 277 273 266 262 260 253 248 245 249 244
272 303 321 332 310 311 345 347 344 331 327 331 326 325 320 325 330 329 328 324 327 328 329 331 329 331 333 326 316 308 303 294 285 280 272 267 265 264 260 260 254 246 246 244
343 330 302 310 332 348 350 342 339 338 334 329 331 323 329 335 332 331 328 334 333 332 334 334 335 336 336 334 331 325 320 312 305 296 284 273 263 261 255 253 251 248 243 241
341 334 347 347 346 347 347 349 348 339 329 330 324 332 340 340 336 334 334 338 336 335 339 340 341 342 342 339 337 339 338 336 321 305 297 286 276 264 252 248 245 239 235 243
354 344 351 347 347 5 359 341 333 335 332 326 334 341 343 342 338 339 342 342 340 341 346 346 343 347 346 348 351 354 353 347 341 330 316 309 296 281 265 254 244 236 233 235
6 350 341 11 8 359 350 337 344 340 337 336 342 345 346 344 343 342 343 344 347 349 352 351 352 353 359 360 1 7 7 360 0 355 342 334 323 313 288 258 243 226 224 224
349 8 12 7 6 353 344 355 347 349 343 344 347 348 346 346 348 347 347 352 354 349 353 355 359 3 6 7 11 18 22 17 18 7 6 4 4 9 357 234 212 209 202 210
23 14 6 14 344 4 354 358 353 351 350 349 348 352 351 356 355 350 355 355 355 350 351 358 3 6 8 12 18 27 25 30 31 29 25 26 28 36 46 85 139 164 170 182
21 17 18 360 25 11 17 3 0 358 0 356 352 358 356 358 358 357 358 354 360 359 2 8 6 9 13 20 32 33 36 35 40 44 35 43 35 38 43 71 98 125 152 160
16 23 21 4 3 30 14 15 5 12 8 0 359 1 1 2 1 1 7 0 1 5 10 12 10 15 23 37 39 39 39 39 42 47 52 46 51 53 52 66 98 117 146 141
22 33 27 18 33 27 24 17 16 15 13 6 2 3 359 5 4 3 3 10 11 14 18 18 18 27 36 41 44 48 41 46 42 42 48 55 69 65 71 76 84 119 121 126
19 43 39 34 32 30 29 17 20 14 23 8 7 10 2 5 10 14 15 15 18 22 27 26 29 39 42 42 47 46 47 49 46 49 57 60 63 62 84 81 96 99 109 126
40 72 45 41 36 31 30 17 23 12 20 15 12 18 8 10 16 17 23 23 25 30 33 35 38 40 46 45 45 48 45 46 50 48 54 58 65 69 77 86 93 98 104 126
64 59 49 42 38 33 32 21 29 16 14 19 16 21 11 13 23 27 31 31 31 34 37 39 42 41 45 44 45 48 49 50 52 53 53 62 64 75 80 90 102 109 119 124
69 48 53 44 39 37 32 28 30 24 13 17 24 25 19 13 24 30 33 36 37 36 38 41 44 46 47 47 45 49 53 50 48 50 51 56 69 72 87 96 98 101 106 107
Wind_Speed_850mb
16 25 29 29 32 32 31 25 21 35 30 33 28 10 10 18 19 16 19 28 34 36 38 32 24 22 26 37 43 42 40 44 50 58 67 72 75 73 69 70 74 77 76 66
19 27 28 36 33 31 35 37 39 35 28 18 18 30 35 26 21 21 26 33 38 41 48 48 52 54 54 53 57 59 63 68 68 63 52 51 56 55 58 57 55 66 70 69
9 15 27 22 25 25 13 23 3 8 7 20 17 15 15 27 31 37 40 44 49 57 66 73 71 66 67 68 65 67 71 74 67 65 66 71 75 76 79 78 67 57 59 69
8 14 8 11 20 5 12 25 25 8 10 12 8 29 32 22 36 39 42 44 49 56 66 69 69 74 80 84 78 75 83 86 82 80 85 89 88 83 87 90 98 88 70 59
5 6 21 22 10 9 5 5 3 15 15 20 33 31 17 46 58 57 59 58 63 65 63 61 62 64 65 72 78 80 86 84 84 75 79 80 82 81 81 83 87 80 72 69
5 5 7 3 16 24 7 4 10 13 12 18 38 13 14 55 59 54 53 58 65 76 83 67 55 60 67 78 94 107 113 91 78 78 82 79 74 83 80 78 83 76 81 60
12 7 12 12 17 12 1 2 18 19 26 35 8 14 53 58 58 61 68 74 71 69 58 66 75 87 104 111 105 93 73 69 79 81 65 70 78 80 80 84 84 69 67 79
8 9 12 11 12 1 6 16 23 28 39 30 40 46 50 58 65 66 66 68 60 71 76 80 93 88 95 89 90 82 89 79 71 67 75 75 72 78 76 73 71 73 76 75
6 7 14 21 4 13 13 25 25 38 29 38 45 47 56 63 65 67 62 70 69 73 90 104 96 91 85 94 86 82 76 80 76 72 67 68 69 73 76 72 66 63 64 59
10 9 16 21 15 14 20 29 31 32 37 39 46 55 61 61 61 66 68 69 78 83 89 98 90 85 85 88 79 75 76 75 76 76 77 80 76 66 69 70 65 63 64 60
21 8 13 13 13 18 36 36 32 30 32 43 49 53 54 58 78 64 74 80 81 83 98 94 96 91 80 70 64 66 67 68 70 68 67 66 68 71 68 71 69 66 64 58
7 14 24 37 17 25 29 28 29 35 44 44 42 53 58 70 55 77 90 90 83 95 89 93 91 83 73 65 57 58 62 63 65 64 66 68 69 72 69 73 75 75 72 52
15 22 14 25 24 30 26 26 29 37 37 49 54 54 58 57 82 93 85 73 91 94 93 89 82 78 70 63 57 58 63 61 60 62 68 66 63 68 70 70 74 81 82 76
15 7 12 20 33 40 25 30 31 36 46 46 53 55 56 81 89 81 76 89 92 92 85 77 74 76 73 67 64 63 61 59 62 64 64 65 67 62 66 60 61 67 68 64
9 13 24 28 26 30 34 39 47 51 46 56 54 48 73 81 77 80 80 92 86 84 77 75 79 79 71 65 65 62 58 54 51 50 49 50 52 59 63 66 64 60 59 59
18 24 26 29 30 37 36 40 37 41 58 56 41 65 76 78 77 77 86 86 85 84 76 76 79 75 67 65 61 57 53 44 31 33 37 39 42 47 51 58 59 58 59 61
16 22 25 28 28 28 31 34 48 44 51 35 56 73 84 78 75 82 87 80 72 69 71 76 75 67 63 53 57 53 52 38 31 31 35 38 39 40 42 47 49 51 57 54
18 22 22 20 31 33 33 45 38 48 41 48 67 77 74 73 84 85 88 79 72 76 71 70 66 63 54 49 48 46 50 32 35 36 35 33 34 33 36 34 36 38 44 43
17 19 24 29 26 29 39 37 46 38 39 59 68 70 64 70 79 85 82 74 77 85 83 70 63 62 55 40 40 33 43 32 42 33 36 25 25 23 10 13 18 24 29 32
22 24 27 23 33 28 37 39 43 36 53 52 57 69 71 83 82 83 77 71 71 72 71 65 64 59 51 42 36 37 35 32 34 36 37 35 28 29 30 16 13 18 27 27
23 22 27 35 28 36 33 45 35 51 48 50 54 68 70 79 80 84 79 77 74 67 65 62 60 55 47 41 39 35 31 32 37 39 38 39 34 28 22 14 19 19 22 28
21 19 29 28 34 30 42 32 47 54 54 47 61 70 80 83 81 84 70 68 70 64 64 61 54 44 39 37 36 37 32 28 28 33 34 35 39 38 29 24 16 18 22 21
18 19 29 33 33 36 38 37 57 58 54 42 69 62 71 84 79 85 89 74 68 61 61 54 46 42 44 41 39 38 34 31 24 26 26 30 36 34 31 26 25 25 24 18
17 21 30 32 33 39 41 44 50 59 50 46 66 54 65 86 80 70 72 69 65 59 60 53 48 49 53 51 47 41 38 33 31 28 26 25 24 25 35 28 33 31 28 28
26 25 31 30 36 38 36 42 50 56 68 49 64 56 56 79 76 73 74 75 70 67 63 59 56 56 55 53 51 50 43 37 33 28 28 27 28 27 28 30 34 33 29 26
25 26 27 31 37 36 37 46 54 50 67 71 60 59 55 83 82 78 77 79 78 74 72 67 67 60 61 56 51 50 50 44 37 33 33 32 27 25 25 25 24 25 25 23
27 27 26 34 34 37 37 41 57 49 56 72 68 60 56 79 81 84 83 83 84 82 78 75 71 66 65 61 57 52 51 47 42 40 35 37 32 25 27 27 27 26 22 19
Wind_Direction_850mb
270 283 287 284 275 269 264 238 215 267 254 257 271 284 177 71 33 347 291 285 315 320 326 335 353 326 301 297 292 285 285 280 283 288 283 279 277 280 285 287 289 288 291 296
290 282 282 279 287 286 271 271 266 265 269 41 58 45 38 17 351 325 27 356 343 333 325 321 315 310 306 310 307 296 288 285 281 279 280 276 270 267 268 276 286 290 290 289
260 326 318 294 252 256 279 337 353 39 11 33 13 33 11 351 18 17 356 341 331 321 316 313 311 307 303 303 299 296 292 287 284 279 277 276 273 272 273 273 276 281 286 285
277 300 246 243 333 64 91 56 349 19 95 102 318 340 343 24 13 351 339 326 318 314 312 308 303 300 299 297 299 298 295 291 288 283 279 276 274 273 277 277 277 278 273 280
239 232 289 295 20 12 17 108 302 0 348 357 348 334 302 355 344 336 330 323 318 315 309 303 300 293 288 287 287 288 292 292 290 280 276 274 271 274 278 280 278 276 272 271
204 226 263 104 24 24 7 233 358 0 338 345 339 339 316 334 333 327 322 320 317 313 309 308 295 288 288 291 292 292 291 277 275 277 273 268 266 277 276 279 274 273 266 263
221 239 274 25 345 73 317 278 298 332 349 318 304 308 324 327 323 323 320 318 318 312 302 303 299 300 301 302 298 299 290 277 278 272 266 261 266 269 273 276 276 264 263 256
224 218 248 12 351 348 250 315 324 341 324 335 335 331 326 322 320 319 317 318 312 308 310 305 305 307 302 296 295 292 288 286 279 273 272 274 264 264 270 270 260 258 263 268
213 226 225 282 238 312 289 297 336 319 338 340 333 331 325 318 317 318 318 315 313 313 308 309 307 311 296 302 301 297 290 282 281 276 274 271 265 265 270 264 252 251 254 257
345 305 12 30 81 14 341 323 319 326 338 336 333 326 319 318 320 320 319 317 316 314 311 308 309 309 305 306 303 296 289 283 277 278 275 270 269 265 258 252 248 248 248 247
290 314 342 56 358 347 315 311 314 337 337 333 325 319 320 321 323 321 317 321 319 313 313 310 313 314 314 310 305 298 293 288 284 279 273 266 261 261 256 254 246 243 244 243
240 341 292 286 312 322 298 314 344 340 336 330 329 324 324 325 317 320 325 322 317 317 315 314 320 321 322 324 314 306 298 291 285 280 274 268 264 264 253 249 244 240 241 238
235 263 300 312 320 308 329 351 346 341 337 334 329 325 324 320 322 327 324 321 320 322 322 324 326 325 330 326 316 305 298 290 283 278 277 273 266 262 260 253 248 245 249 244
272 303 321 332 310 311 345 347 344 331 327 331 326 325 320 325 330 329 328 324 327 328 329 331 329 331 333 326 316 308 303 294 285 280 272 267 265 264 260 260 254 246 246 244
343 330 302 310 332 348 350 342 339 338 334 329 331 323 329 335 332 331 328 334 333 332 334 334 335 336 336 334 331 325 320 312 305 296 284 273 263 261 255 253 251 248 243 241
341 334 347 347 346 347 347 349 348 339 329 330 324 332 340 340 336 334 334 338 336 335 339 340 341 342 342 339 337 339 338 336 321 305 297 286 276 264 252 248 245 239 235 243
354 344 351 347 347 5 359 341 333 335 332 326 334 341 343 342 338 339 342 342 340 341 346 346 343 347 346 348 351 354 353 347 341 330 316 309 296 281 265 254 244 236 233 235
6 350 341 11 8 359 350 337 344 340 337 336 342 345 346 344 343 342 343 344 347 349 352 351 352 353 359 360 1 7 7 360 0 355 342 334 323 313 288 258 243 226 224 224
349 8 12 7 6 353 344 355 347 349 343 344 347 348 346 346 348 347 347 352 354 349 353 355 359 3 6 7 11 18 22 17 18 7 6 4 4 9 357 234 212 209 202 210
23 14 6 14 344 4 354 358 353 351 350 349 348 352 351 356 355 350 355 355 355 350 351 358 3 6 8 12 18 27 25 30 31 29 25 26 28 36 46 85 139 164 170 182
21 17 18 360 25 11 17 3 0 358 0 356 352 358 356 358 358 357 358 354 360 359 2 8 6 9 13 20 32 33 36 35 40 44 35 43 35 38 43 71 98 125 152 160
16 23 21 4 3 30 14 15 5 12 8 0 359 1 1 2 1 1 7 0 1 5 10 12 10 15 23 37 39 39 39 39 42 47 52 46 51 53 52 66 98 117 146 141
22 33 27 18 33 27 24 17 16 15 13 6 2 3 359 5 4 3 3 10 11 14 18 18 18 27 36 41 44 48 41 46 42 42 48 55 69 65 71 76 84 119 121 126
19 43 39 34 32 30 29 17 20 14 23 8 7 10 2 5 10 14 15 15 18 22 27 26 29 39 42 42 47 46 47 49 46 49 57 60 63 62 84 81 96 99 109 126
40 72 45 41 36 31 30 17 23 12 20 15 12 18 8 10 16 17 23 23 25 30 33 35 38 40 46 45 45 48 45 46 50 48 54 58 65 69 77 86 93 98 104 126
64 59 49 42 38 33 32 21 29 16 14 19 16 21 11 13 23 27 31 31 31 34 37 39 42 41 45 44 45 48 49 50 52 53 53 62 64 75 80 90 102 109 119 124
69 48 53 44 39 37 32 28 30 24 13 17 24 25 19 13 24 30 33 36 37 36 38 41 44 46 47 47 45 49 53 50 48 50 51 56 69 72 87 96 98 101 106 107